"startDT [UTC]","vpos","CH4 [ppm]","stdev(CH4) [ppm]","CO2 [ppm]","stdev(CO2) [ppm]","H2O [ppm]","stdev(H2O)","p_LGR [torr]","T_LGR [C]","mt1_LGR [us]","mt2_LGR [us]","T_ECpre [C]","T_EC1 [C]","T_EC2 [C]","p_inlet [hPa]","p_in [hPa]","p_out [hPa]","T_inlet [C]","RH_inlet [%]","dwpt_inlet [C]","T_vent [C]","RH_vent [%]","dwpt_vent [C]","flow_vent [l min-1]","flow_inlet [l min-1]","dwpt_sample [C]","T_room [C]"
2012-11-23 00:00:00,0.0,1.9174,0.0011,407.18,0.24,-0.6,3.2,138.13,27.25,24.63,36.36,0.04,-272.75,-272.75,-39,556,-925,21.7,1.5,-32.8,21.9,1.5,-32.3,5.73,2.43,-29.6,26.8
2012-11-23 00:01:00,0.0,1.9189,0.0011,407.11,0.19,0.4,5.9,138.13,27.25,24.63,36.36,0.04,-272.76,-272.75,-39,556,-925,21.7,1.5,-32.8,21.9,1.5,-32.5,5.73,2.42,-29.6,26.8
2012-11-23 00:02:00,0.0,1.9188,0.0009,407.01,0.20,0.2,7.7,138.13,27.26,24.63,36.36,0.04,-272.75,-272.76,-39,556,-925,21.7,1.5,-32.8,21.9,1.5,-32.5,5.73,2.40,-29.6,26.8
2012-11-23 00:03:00,0.0,1.9178,0.0011,406.62,0.27,-0.0,4.0,138.13,27.26,24.64,36.35,0.04,-272.76,-272.75,-39,556,-925,21.7,1.5,-32.8,21.9,1.5,-32.6,5.73,2.38,-29.6,26.8
2012-11-23 00:04:00,0.0,1.9179,0.0009,406.46,0.19,0.2,5.1,138.13,27.26,24.64,36.35,0.04,-272.74,-272.76,-39,556,-925,21.7,1.5,-32.8,21.9,1.5,-32.5,5.73,2.37,-29.6,26.8
2012-11-23 00:05:00,0.0,1.9182,0.0011,406.57,0.24,-1.0,0.2,138.13,27.26,24.63,36.36,0.04,-272.75,-272.75,-39,556,-925,21.7,1.5,-32.8,21.9,1.5,-32.4,5.73,2.37,-29.6,26.9
2012-11-23 00:06:00,0.0,1.9181,0.0011,406.61,0.20,-0.6,2.7,138.13,27.26,24.63,36.35,0.04,-272.76,-272.75,-39,556,-925,21.7,1.5,-32.7,21.9,1.5,-32.4,5.73,2.39,-29.7,26.8
2012-11-23 00:07:00,0.0,1.9174,0.0010,406.63,0.22,0.3,5.9,138.13,27.26,24.64,36.35,0.04,-272.75,-272.75,-39,556,-925,21.7,1.5,-32.7,21.9,1.5,-32.4,5.73,2.41,-29.7,26.8
2012-11-23 00:08:00,0.0,1.9183,0.0009,406.74,0.27,-0.6,2.6,138.13,27.26,24.63,36.35,0.04,-272.75,-272.75,-39,556,-925,21.7,1.5,-32.6,21.9,1.5,-32.3,5.73,2.43,-29.7,26.8
2012-11-23 00:09:00,0.0,1.9179,0.0009,406.76,0.23,-0.7,2.1,138.13,27.27,24.63,36.35,0.04,-272.75,-272.75,-39,556,-925,21.7,1.5,-32.6,21.9,1.5,-32.3,5.73,2.42,-29.7,26.8
2012-11-23 00:10:00,0.0,1.9176,0.0011,406.72,0.23,-0.9,0.7,138.13,27.26,24.63,36.35,0.04,-272.75,-272.75,-39,556,-925,21.7,1.5,-32.6,21.9,1.6,-32.1,5.73,2.42,-29.7,26.9
2012-11-23 00:11:00,0.0,1.9178,0.0009,406.71,0.23,-0.7,2.0,138.13,27.26,24.63,36.35,0.04,-272.76,-272.75,-39,556,-925,21.7,1.5,-32.6,21.9,1.6,-32.2,5.73,2.40,-29.7,26.8
2012-11-23 00:12:00,0.0,1.9175,0.0011,406.68,0.25,0.4,5.7,138.13,27.26,24.64,36.36,0.04,-272.75,-272.75,-39,556,-925,21.7,1.5,-32.6,21.9,1.6,-32.2,5.73,2.38,-29.7,26.9
2012-11-23 00:13:00,0.0,1.9172,0.0010,406.65,0.19,-0.8,1.4,138.13,27.26,24.63,36.36,0.04,-272.75,-272.76,-39,556,-925,21.7,1.5,-32.6,21.9,1.6,-32.2,5.73,2.37,-29.7,26.8
2012-11-23 00:14:00,0.0,1.9174,0.0013,406.67,0.25,-0.2,6.6,138.13,27.26,24.63,36.36,0.04,-272.75,-272.75,-39,556,-925,21.7,1.5,-32.6,21.9,1.6,-32.2,5.73,2.38,-29.7,26.8
2012-11-23 00:15:00,0.0,1.9179,0.0011,406.88,0.22,0.6,6.3,138.13,27.26,24.63,36.35,0.04,-272.75,-272.75,-39,556,-925,21.7,1.5,-32.6,21.9,1.6,-32.2,5.73,2.39,-29.7,26.8
2012-11-23 00:16:00,0.0,1.9169,0.0011,407.01,0.22,-0.8,1.0,138.13,27.26,24.64,36.35,0.04,-272.75,-272.75,-39,556,-925,21.7,1.5,-32.6,21.9,1.6,-32.2,5.73,2.41,-29.7,26.8
2012-11-23 00:17:00,0.0,1.9173,0.0010,407.08,0.26,0.0,6.0,138.13,27.26,24.63,36.35,0.04,-272.75,-272.75,-39,556,-925,21.8,1.5,-32.4,21.9,1.6,-32.0,5.73,2.42,-29.7,26.9
2012-11-23 00:18:00,0.0,1.9170,0.0011,407.00,0.20,0.5,6.8,138.13,27.26,24.64,36.36,0.04,-272.74,-272.76,-39,556,-925,21.8,1.5,-32.4,21.9,1.6,-31.9,5.73,2.44,-29.7,26.9
2012-11-23 00:19:00,0.0,1.9170,0.0010,407.09,0.19,-0.7,2.0,138.13,27.26,24.63,36.35,0.04,-272.76,-272.75,-39,556,-925,21.8,1.5,-32.4,21.9,1.6,-32.0,5.73,2.42,-29.7,26.9
2012-11-23 00:20:00,0.0,1.9168,0.0008,407.11,0.24,-0.4,3.3,138.13,27.26,24.63,36.35,0.04,-272.76,-272.75,-39,556,-925,21.8,1.5,-32.4,21.9,1.6,-32.0,5.73,2.40,-29.7,26.8
2012-11-23 00:21:00,0.0,1.9166,0.0011,407.06,0.22,-0.8,1.9,138.13,27.26,24.63,36.36,0.04,-272.75,-272.75,-39,556,-925,21.7,1.6,-32.2,21.9,1.6,-31.8,5.73,2.38,-29.8,26.8
2012-11-23 00:22:00,0.0,1.9166,0.0010,407.10,0.19,0.4,7.1,138.13,27.26,24.64,36.35,0.04,-272.75,-272.75,-39,556,-925,21.8,1.6,-32.3,21.9,1.6,-31.8,5.73,2.37,-29.7,26.8
2012-11-23 00:23:00,0.0,1.9170,0.0010,407.07,0.18,0.1,4.2,138.13,27.26,24.63,36.35,0.04,-272.76,-272.75,-39,556,-925,21.8,1.6,-32.2,21.9,1.6,-31.8,5.73,2.37,-29.8,26.8
2012-11-23 00:24:00,0.0,1.9167,0.0009,407.09,0.22,-0.5,3.3,138.13,27.26,24.63,36.35,0.04,-272.75,-272.75,-39,556,-925,21.8,1.6,-32.2,21.9,1.6,-31.8,5.73,2.38,-29.8,26.9
2012-11-23 00:25:00,0.0,1.9172,0.0012,407.06,0.22,-0.2,6.6,138.13,27.26,24.63,36.36,0.04,-272.75,-272.74,-39,556,-925,21.7,1.6,-32.3,21.9,1.6,-31.8,5.73,2.40,-29.8,26.8
2012-11-23 00:26:00,0.0,1.9169,0.0009,407.13,0.19,-1.0,0.0,138.13,27.26,24.64,36.35,0.04,-272.75,-272.75,-39,556,-925,21.7,1.6,-32.3,21.9,1.6,-32.0,5.73,2.41,-29.8,26.9
2012-11-23 00:27:00,0.0,1.9172,0.0011,407.10,0.20,0.4,6.3,138.13,27.27,24.63,36.35,0.04,-272.74,-272.75,-39,556,-925,21.8,1.5,-32.4,21.9,1.6,-32.0,5.73,2.43,-29.8,26.9
2012-11-23 00:28:00,0.0,1.9170,0.0010,407.04,0.18,1.1,8.7,138.13,27.26,24.63,36.36,0.04,-272.75,-272.75,-39,556,-925,21.7,1.5,-32.4,21.9,1.6,-32.0,5.73,2.42,-29.8,26.9
2012-11-23 00:29:00,0.0,1.9168,0.0012,407.06,0.19,-0.7,1.7,138.13,27.26,24.64,36.35,0.04,-272.75,-272.75,-39,556,-925,21.7,1.5,-32.4,21.9,1.6,-31.9,5.73,2.41,-29.8,26.8
2012-11-23 00:30:00,0.0,1.9167,0.0010,407.01,0.21,-0.0,6.4,138.13,27.26,24.64,36.36,0.04,-272.75,-272.75,-39,556,-925,21.8,1.6,-32.2,21.9,1.6,-31.8,5.73,2.38,-29.8,26.8
2012-11-23 00:31:00,0.0,1.9168,0.0010,406.99,0.22,-0.0,4.9,138.13,27.26,24.63,36.36,0.04,-272.75,-272.74,-39,556,-925,21.7,1.6,-32.2,21.9,1.6,-31.8,5.73,2.38,-29.8,26.8
2012-11-23 00:32:00,0.0,1.9166,0.0010,407.06,0.24,-0.3,2.8,138.13,27.26,24.64,36.36,0.04,-272.75,-272.75,-39,556,-925,21.7,1.6,-32.2,21.9,1.6,-31.8,5.73,2.38,-29.8,26.8
2012-11-23 00:33:00,0.0,1.9168,0.0008,407.07,0.22,-0.8,1.9,138.13,27.27,24.64,36.35,0.04,-272.75,-272.75,-39,556,-925,21.8,1.6,-32.1,21.9,1.6,-31.7,5.73,2.38,-29.8,26.8
2012-11-23 00:34:00,0.0,1.9167,0.0010,406.99,0.20,-0.1,3.5,138.13,27.27,24.64,36.36,0.04,-272.75,-272.75,-39,556,-925,21.7,1.6,-32.1,21.9,1.7,-31.6,5.73,2.40,-29.8,26.8
2012-11-23 00:35:00,0.0,1.9167,0.0009,407.11,0.22,-0.4,3.5,138.13,27.27,24.63,36.35,0.04,-272.75,-272.75,-39,556,-925,21.8,1.6,-31.8,21.9,1.7,-31.6,5.73,2.42,-29.8,26.8
2012-11-23 00:36:00,0.0,1.9166,0.0009,406.96,0.23,-0.9,0.5,138.13,27.27,24.64,36.36,0.04,-272.75,-272.74,-39,556,-925,21.7,1.6,-31.9,21.9,1.7,-31.5,5.73,2.43,-29.8,26.8
2012-11-23 00:37:00,0.0,1.9170,0.0012,406.95,0.19,-0.4,3.4,138.13,27.26,24.63,36.36,0.04,-272.75,-272.75,-39,556,-925,21.7,1.6,-31.9,21.9,1.7,-31.4,5.73,2.42,-29.9,26.8
2012-11-23 00:38:00,0.0,1.9168,0.0011,406.90,0.26,-1.0,0.0,138.13,27.27,24.64,36.36,0.04,-272.75,-272.75,-39,556,-925,21.7,1.6,-31.8,21.9,1.7,-31.5,5.73,2.42,-29.9,26.8
2012-11-23 00:39:00,0.0,1.9162,0.0011,406.80,0.22,0.5,8.8,138.13,27.26,24.64,36.36,0.04,-272.75,-272.75,-39,556,-925,21.7,1.7,-31.7,21.9,1.7,-31.4,5.73,2.39,-29.9,26.8
2012-11-23 00:40:00,0.0,1.9167,0.0011,406.92,0.22,0.2,4.9,138.13,27.26,24.64,36.35,0.04,-272.75,-272.75,-39,556,-925,21.7,1.6,-31.7,21.9,1.7,-31.3,5.73,2.38,-29.9,26.8
2012-11-23 00:41:00,0.0,1.9168,0.0010,406.98,0.24,-0.7,2.6,138.13,27.26,24.63,36.36,0.04,-272.75,-272.75,-39,556,-925,21.7,1.7,-31.7,21.9,1.7,-31.3,5.73,2.37,-29.9,26.8
2012-11-23 00:42:00,0.0,1.9169,0.0010,406.97,0.24,-0.7,2.0,138.13,27.27,24.63,36.36,0.04,-272.75,-272.75,-39,556,-925,21.7,1.6,-31.7,21.8,1.7,-31.3,5.73,2.38,-29.9,26.8
2012-11-23 00:43:00,0.0,1.9162,0.0011,407.00,0.22,-0.5,2.5,138.13,27.27,24.64,36.36,0.04,-272.75,-272.75,-39,556,-925,21.7,1.7,-31.7,21.9,1.7,-31.3,5.73,2.39,-29.9,26.8
2012-11-23 00:44:00,0.0,1.9170,0.0011,407.07,0.23,-0.3,3.8,138.13,27.27,24.64,36.36,0.04,-272.75,-272.75,-39,556,-925,21.7,1.7,-31.7,21.9,1.7,-31.3,5.73,2.41,-29.9,26.8
2012-11-23 00:45:00,0.0,1.9166,0.0010,407.09,0.28,-0.7,1.9,138.13,27.27,24.64,36.36,0.04,-272.76,-272.75,-39,556,-925,21.7,1.6,-31.8,21.9,1.7,-31.4,5.73,2.43,-29.9,26.8
2012-11-23 00:46:00,0.0,1.9175,0.0010,407.01,0.25,-0.3,4.5,138.13,27.27,24.63,36.36,0.04,-272.75,-272.75,-39,556,-925,21.7,1.6,-32.0,21.9,1.6,-31.7,5.73,2.43,-29.9,26.8
2012-11-23 00:47:00,0.0,1.9169,0.0009,407.10,0.21,-1.0,0.4,138.13,27.27,24.63,36.35,0.04,-272.75,-272.75,-39,556,-925,21.7,1.6,-32.3,21.9,1.6,-31.9,5.73,2.41,-29.9,26.8
2012-11-23 00:48:00,0.0,1.9169,0.0011,407.08,0.24,-0.7,1.9,138.13,27.27,24.64,36.35,0.04,-272.75,-272.75,-39,556,-925,21.7,1.5,-32.4,21.9,1.6,-32.0,5.73,2.40,-29.9,26.8
2012-11-23 00:49:00,0.0,1.9170,0.0011,407.05,0.23,0.2,5.6,138.13,27.27,24.63,36.35,0.04,-272.75,-272.75,-39,556,-925,21.7,1.5,-32.5,21.9,1.6,-32.0,5.73,2.38,-29.9,26.8
2012-11-23 00:50:00,0.0,1.9169,0.0010,406.85,0.25,-1.0,0.0,138.13,27.27,24.63,36.36,0.04,-272.75,-272.75,-39,556,-925,21.7,1.5,-32.4,21.9,1.6,-32.0,5.73,2.37,-29.9,26.8
2012-11-23 00:51:00,0.0,1.9170,0.0009,406.88,0.24,-0.8,1.4,138.13,27.27,24.63,36.36,0.04,-272.75,-272.75,-39,556,-925,21.7,1.5,-32.4,21.8,1.6,-32.0,5.73,2.38,-30.0,26.8
2012-11-23 00:52:00,0.0,1.9169,0.0010,406.90,0.23,-0.9,0.6,138.13,27.27,24.63,36.36,0.04,-272.75,-272.74,-39,556,-925,21.7,1.5,-32.4,21.8,1.6,-32.0,5.73,2.39,-29.9,26.8
2012-11-23 00:53:00,0.0,1.9169,0.0010,406.93,0.21,-0.6,2.6,138.13,27.27,24.63,36.36,0.04,-272.75,-272.75,-39,556,-925,21.7,1.6,-32.3,21.8,1.6,-31.8,5.73,2.41,-30.0,26.8
2012-11-23 00:54:00,0.0,1.9167,0.0009,407.01,0.23,-0.7,1.6,138.13,27.27,24.63,36.35,0.04,-272.75,-272.75,-39,556,-925,21.7,1.6,-32.1,21.8,1.6,-31.7,5.73,2.42,-30.0,26.8
2012-11-23 00:55:00,0.0,1.9167,0.0010,407.03,0.26,-0.5,2.9,138.13,27.27,24.63,36.35,0.04,-272.75,-272.75,-39,556,-925,21.7,1.6,-31.9,21.9,1.7,-31.6,5.73,2.43,-30.0,26.8
2012-11-23 00:56:00,0.0,1.9162,0.0011,406.95,0.20,-0.8,1.8,138.13,27.26,24.64,36.36,0.04,-272.75,-272.75,-39,556,-925,21.7,1.6,-31.8,21.9,1.7,-31.5,5.73,2.42,-30.0,26.8
2012-11-23 00:57:00,0.0,1.9166,0.0009,407.08,0.21,0.3,7.0,138.13,27.26,24.63,36.35,0.04,-272.75,-272.75,-39,556,-925,21.7,1.6,-31.7,21.8,1.7,-31.5,5.73,2.40,-30.0,26.8
2012-11-23 00:58:00,0.0,1.9168,0.0013,406.93,0.22,0.8,9.4,138.13,27.26,24.63,36.35,0.04,-272.75,-272.75,-39,556,-925,21.7,1.6,-31.8,21.8,1.7,-31.5,5.73,2.38,-30.0,26.8
2012-11-23 00:59:00,0.0,1.9167,0.0012,406.93,0.19,-0.6,1.9,138.13,27.26,24.63,36.35,0.04,-272.75,-272.75,-39,556,-925,21.7,1.6,-31.9,21.8,1.7,-31.5,5.73,2.37,-30.0,26.8
2012-11-23 01:00:00,0.0,1.9163,0.0011,406.97,0.24,0.4,6.8,138.13,27.26,24.64,36.35,0.04,-272.75,-272.75,-39,556,-925,21.7,1.6,-31.9,21.8,1.7,-31.5,5.73,2.37,-30.0,26.8
2012-11-23 01:01:00,0.0,1.9168,0.0009,406.88,0.20,-0.5,3.7,138.13,27.26,24.63,36.36,0.04,-272.75,-272.75,-39,556,-925,21.7,1.6,-31.8,21.8,1.7,-31.5,5.73,2.39,-30.0,26.8
2012-11-23 01:02:00,0.0,1.9167,0.0010,406.95,0.22,-0.7,2.3,138.13,27.27,24.63,36.35,0.04,-272.75,-272.74,-39,556,-925,21.7,1.6,-31.9,21.9,1.7,-31.5,5.73,2.41,-30.0,26.9
2012-11-23 01:03:00,0.0,1.9169,0.0009,406.98,0.22,0.9,8.5,138.13,27.27,24.63,36.36,0.04,-272.75,-272.75,-39,556,-925,21.7,1.6,-31.9,21.8,1.7,-31.5,5.73,2.42,-30.0,26.8
2012-11-23 01:04:00,0.0,1.9168,0.0010,407.12,0.20,-0.7,1.5,138.13,27.26,24.64,36.36,0.04,-272.75,-272.75,-39,556,-925,21.7,1.6,-31.8,21.8,1.7,-31.5,5.73,2.43,-30.0,26.8
2012-11-23 01:05:00,0.0,1.9167,0.0009,407.22,0.24,-1.0,0.0,138.13,27.27,24.63,36.35,0.04,-272.75,-272.75,-39,556,-925,21.7,1.6,-31.9,21.8,1.7,-31.5,5.73,2.43,-30.0,26.8
2012-11-23 01:06:00,0.0,1.9168,0.0010,407.11,0.25,-1.0,0.0,138.13,27.27,24.63,36.35,0.04,-272.75,-272.75,-39,556,-925,21.7,1.6,-31.9,21.8,1.7,-31.5,5.73,2.41,-30.0,26.8
2012-11-23 01:07:00,0.0,1.9165,0.0009,407.20,0.22,-0.8,1.5,138.13,27.27,24.63,36.35,0.04,-272.75,-272.75,-39,556,-925,21.7,1.6,-31.9,21.8,1.7,-31.5,5.73,2.38,-30.0,26.8
2012-11-23 01:08:00,0.0,1.9166,0.0007,407.15,0.22,-0.9,1.0,138.13,27.27,24.63,36.36,0.04,-272.75,-272.75,-39,556,-925,21.7,1.6,-31.8,21.8,1.7,-31.5,5.73,2.38,-30.0,26.8
2012-11-23 01:09:00,0.0,1.9165,0.0011,407.17,0.19,0.5,7.2,138.13,27.27,24.63,36.35,0.04,-272.75,-272.75,-39,556,-925,21.7,1.6,-31.9,21.8,1.7,-31.5,5.73,2.37,-30.0,26.8
2012-11-23 01:10:00,0.0,1.9162,0.0013,407.11,0.21,-0.5,2.5,138.13,27.27,24.63,36.35,0.04,-272.75,-272.75,-39,556,-925,21.7,1.6,-31.8,21.9,1.7,-31.5,5.73,2.38,-30.0,26.8
2012-11-23 01:11:00,0.0,1.9161,0.0010,407.05,0.23,-0.5,4.1,138.13,27.26,24.63,36.36,0.04,-272.75,-272.75,-39,556,-925,21.7,1.6,-31.9,21.9,1.7,-31.5,5.73,2.40,-30.0,26.8
2012-11-23 01:12:00,0.0,1.9164,0.0011,407.25,0.24,-0.5,2.9,138.13,27.26,24.63,36.35,0.04,-272.75,-272.75,-39,556,-925,21.7,1.6,-31.9,21.9,1.7,-31.6,5.73,2.41,-30.0,26.8
2012-11-23 01:13:00,0.0,1.9168,0.0011,407.16,0.26,-0.5,3.2,138.13,27.26,24.63,36.36,0.04,-272.75,-272.75,-39,556,-925,21.7,1.6,-32.0,21.8,1.6,-31.7,5.73,2.42,-30.0,26.8
2012-11-23 01:14:00,0.0,1.9162,0.0011,407.10,0.25,-0.0,5.8,138.13,27.26,24.63,36.36,0.04,-272.75,-272.75,-39,556,-925,21.7,1.6,-32.1,21.9,1.7,-31.6,5.73,2.43,-30.0,26.8
2012-11-23 01:15:00,0.0,1.9163,0.0010,407.05,0.20,-0.2,4.7,138.13,27.26,24.63,36.36,0.04,-272.75,-272.75,-39,556,-925,21.7,1.6,-32.0,21.9,1.6,-31.8,5.73,2.42,-30.0,26.8
2012-11-23 01:16:00,0.0,1.9162,0.0009,407.16,0.20,0.2,6.0,138.14,27.26,24.63,36.35,0.04,-272.75,-272.75,-39,556,-925,21.7,1.6,-32.1,21.8,1.6,-31.8,5.73,2.40,-30.0,26.8
2012-11-23 01:17:00,0.0,1.9163,0.0010,407.16,0.23,-1.0,0.0,138.13,27.26,24.63,36.35,0.04,-272.75,-272.75,-39,556,-925,21.7,1.6,-32.1,21.8,1.6,-31.9,5.73,2.38,-30.0,26.8
2012-11-23 01:18:00,0.0,1.9168,0.0010,407.30,0.23,-1.0,0.4,138.13,27.26,24.64,36.35,0.04,-272.75,-272.75,-39,556,-925,21.7,1.6,-32.1,21.8,1.6,-31.8,5.73,2.37,-30.0,26.8
2012-11-23 01:19:00,0.0,1.9168,0.0010,407.30,0.19,-0.4,3.6,138.13,27.26,24.63,36.35,0.04,-272.75,-272.76,-39,556,-925,21.7,1.6,-32.2,21.8,1.6,-31.8,5.73,2.37,-30.0,26.8
2012-11-23 01:20:00,0.0,1.9161,0.0011,407.23,0.25,-0.6,1.8,138.13,27.26,24.64,36.35,0.04,-272.75,-272.75,-39,556,-925,21.7,1.5,-32.4,21.8,1.6,-32.0,5.73,2.38,-30.0,26.8
2012-11-23 01:21:00,0.0,1.9169,0.0010,407.34,0.20,0.2,5.3,138.13,27.27,24.63,36.35,0.04,-272.75,-272.75,-39,556,-925,21.7,1.5,-32.4,21.8,1.6,-32.0,5.73,2.41,-30.0,26.8
2012-11-23 01:22:00,0.0,1.9163,0.0011,407.24,0.25,-0.0,5.5,138.13,27.27,24.64,36.36,0.04,-272.74,-272.76,-39,556,-925,21.7,1.5,-32.5,21.8,1.6,-32.1,5.73,2.42,-30.1,26.8
2012-11-23 01:23:00,0.0,1.9169,0.0011,407.41,0.21,-1.0,0.0,138.13,27.27,24.63,36.35,0.04,-272.75,-272.74,-39,556,-925,21.7,1.5,-32.6,21.8,1.6,-32.2,5.73,2.43,-30.0,26.8
2012-11-23 01:24:00,0.0,1.9165,0.0009,407.31,0.21,-1.0,0.0,138.13,27.27,24.63,36.36,0.04,-272.75,-272.75,-39,556,-925,21.7,1.5,-32.6,21.8,1.5,-32.4,5.73,2.42,-30.0,26.8
2012-11-23 01:25:00,0.0,1.9167,0.0010,407.33,0.23,0.3,10.3,138.13,27.27,24.63,36.36,0.04,-272.76,-272.74,-39,556,-925,21.7,1.5,-32.7,21.8,1.5,-32.4,5.73,2.41,-30.0,26.8
2012-11-23 01:26:00,0.0,1.9167,0.0011,407.33,0.26,0.0,3.8,138.13,27.27,24.63,36.36,0.04,-272.75,-272.75,-39,556,-925,21.7,1.5,-32.7,21.8,1.5,-32.4,5.73,2.39,-30.0,26.8
2012-11-23 01:27:00,0.0,1.9165,0.0010,407.38,0.23,-0.5,3.8,138.13,27.27,24.64,36.36,0.04,-272.75,-272.76,-39,556,-925,21.7,1.5,-32.8,21.8,1.5,-32.4,5.73,2.38,-30.1,26.8
2012-11-23 01:28:00,0.0,1.9167,0.0010,407.39,0.23,-0.3,3.9,138.13,27.27,24.64,36.35,0.04,-272.75,-272.74,-39,556,-925,21.7,1.5,-32.8,21.8,1.5,-32.4,5.73,2.37,-30.0,26.8
2012-11-23 01:29:00,0.0,1.9165,0.0012,407.32,0.21,0.0,4.8,138.13,27.27,24.64,36.36,0.04,-272.74,-272.75,-39,556,-925,21.7,1.5,-32.8,21.8,1.5,-32.4,5.73,2.38,-30.0,26.8
2012-11-23 01:30:00,0.0,1.9163,0.0010,407.37,0.24,-0.8,1.5,138.13,27.27,24.64,36.35,0.04,-272.75,-272.75,-39,556,-925,21.7,1.5,-32.8,21.8,1.5,-32.4,5.73,2.39,-30.1,26.8
2012-11-23 01:31:00,0.0,1.9170,0.0011,407.33,0.22,-1.0,0.0,138.13,27.27,24.63,36.36,0.04,-272.75,-272.75,-39,556,-925,21.7,1.5,-32.8,21.8,1.5,-32.5,5.73,2.41,-30.0,26.8
2012-11-23 01:32:00,0.0,1.9168,0.0013,407.44,0.20,-1.0,0.0,138.13,27.27,24.63,36.35,0.04,-272.75,-272.75,-39,556,-925,21.7,1.5,-32.8,21.8,1.5,-32.4,5.73,2.42,-30.1,26.8
2012-11-23 01:33:00,0.0,1.9166,0.0008,407.44,0.20,-0.9,1.0,138.13,27.27,24.64,36.35,0.04,-272.75,-272.75,-39,556,-925,21.7,1.5,-32.8,21.8,1.5,-32.4,5.73,2.43,-30.1,26.8
2012-11-23 01:34:00,0.0,1.9168,0.0010,407.36,0.25,-0.0,7.1,138.13,27.27,24.64,36.35,0.04,-272.75,-272.75,-39,556,-925,21.7,1.5,-32.7,21.8,1.5,-32.4,5.73,2.42,-30.1,26.8
2012-11-23 01:35:00,0.0,1.9169,0.0011,407.41,0.23,-0.9,1.1,138.13,27.27,24.64,36.35,0.04,-272.75,-272.75,-39,556,-925,21.7,1.5,-32.7,21.8,1.6,-32.3,5.73,2.40,-30.1,26.8
2012-11-23 01:36:00,0.0,1.9171,0.0010,407.38,0.21,-0.3,3.9,138.13,27.27,24.63,36.35,0.04,-272.75,-272.76,-39,556,-925,21.6,1.5,-32.6,21.8,1.6,-32.2,5.73,2.39,-30.1,26.8
2012-11-23 01:37:00,0.0,1.9174,0.0010,407.33,0.23,0.1,5.9,138.13,27.27,24.63,36.35,0.04,-272.75,-272.75,-39,556,-925,21.7,1.5,-32.7,21.8,1.6,-32.2,5.73,2.38,-30.1,26.8
2012-11-23 01:38:00,0.0,1.9170,0.0010,407.37,0.22,-0.4,4.0,138.13,27.27,24.64,36.35,0.04,-272.75,-272.75,-39,556,-925,21.7,1.5,-32.7,21.8,1.6,-32.2,5.73,2.37,-30.1,26.8
2012-11-23 01:39:00,0.0,1.9170,0.0011,407.23,0.25,-1.0,0.0,138.13,27.27,24.63,36.36,0.04,-272.74,-272.75,-39,556,-925,21.7,1.5,-32.7,21.8,1.5,-32.4,5.73,2.38,-30.1,26.8
2012-11-23 01:40:00,0.0,1.9175,0.0010,407.13,0.20,-1.0,0.2,138.13,27.27,24.63,36.36,0.04,-272.75,-272.75,-39,556,-924,21.7,1.5,-32.8,21.8,1.5,-32.4,5.73,2.40,-30.1,26.8
2012-11-23 01:41:00,0.0,1.9173,0.0011,407.19,0.21,-0.2,6.5,138.13,27.27,24.63,36.35,0.04,-272.75,-272.75,-39,556,-925,21.7,1.5,-32.7,21.8,1.5,-32.4,5.73,2.42,-30.1,26.8
2012-11-23 01:42:00,0.0,1.9170,0.0010,407.04,0.22,-0.3,3.3,138.13,27.27,24.63,36.36,0.04,-272.75,-272.75,-39,556,-925,21.7,1.5,-32.7,21.8,1.5,-32.4,5.73,2.43,-30.1,26.8
2012-11-23 01:43:00,0.0,1.9171,0.0009,407.07,0.24,-0.8,1.4,138.13,27.27,24.63,36.36,0.04,-272.75,-272.75,-39,556,-925,21.6,1.5,-32.7,21.8,1.6,-32.2,5.73,2.43,-30.1,26.8
2012-11-23 01:44:00,0.0,1.9173,0.0012,407.07,0.26,-1.0,0.0,138.13,27.27,24.63,36.36,0.04,-272.75,-272.75,-39,556,-924,21.7,1.5,-32.7,21.8,1.6,-32.2,5.73,2.41,-30.1,26.8
2012-11-23 01:45:00,0.0,1.9174,0.0010,407.04,0.19,-1.0,0.0,138.13,27.27,24.63,36.35,0.04,-272.75,-272.75,-39,556,-925,21.7,1.5,-32.6,21.8,1.6,-32.2,5.73,2.39,-30.2,26.8
2012-11-23 01:46:00,0.0,1.9171,0.0011,407.02,0.23,-1.0,0.4,138.13,27.27,24.63,36.36,0.04,-272.75,-272.75,-39,556,-925,21.7,1.5,-32.7,21.8,1.6,-32.2,5.73,2.38,-30.1,26.8
2012-11-23 01:47:00,0.0,1.9167,0.0010,407.17,0.24,-0.8,1.7,138.13,27.27,24.64,36.35,0.04,-272.75,-272.75,-39,556,-925,21.7,1.5,-32.5,21.8,1.6,-32.1,5.73,2.37,-30.2,26.7
2012-11-23 01:48:00,0.0,1.9167,0.0010,407.14,0.25,-0.6,2.7,138.13,27.27,24.63,36.35,0.04,-272.75,-272.75,-39,556,-924,21.7,1.5,-32.5,21.8,1.6,-32.0,5.73,2.38,-30.1,26.8
2012-11-23 01:49:00,0.0,1.9168,0.0011,407.12,0.21,-1.0,0.0,138.13,27.27,24.64,36.35,0.04,-272.75,-272.75,-39,556,-925,21.7,1.5,-32.5,21.8,1.6,-32.2,5.73,2.39,-30.2,26.8
2012-11-23 01:50:00,0.0,1.9170,0.0009,407.02,0.21,-0.4,3.1,138.13,27.27,24.63,36.36,0.04,-272.76,-272.75,-39,556,-925,21.7,1.5,-32.6,21.8,1.6,-32.2,5.73,2.41,-30.2,26.8
2012-11-23 01:51:00,0.0,1.9172,0.0009,407.05,0.25,-0.5,2.6,138.13,27.26,24.63,36.36,0.04,-272.75,-272.75,-39,556,-925,21.7,1.5,-32.7,21.8,1.6,-32.2,5.73,2.42,-30.2,26.8
2012-11-23 01:52:00,0.0,1.9165,0.0010,407.12,0.25,-1.0,0.0,138.14,27.26,24.63,36.35,0.04,-272.75,-272.75,-39,556,-925,21.7,1.5,-32.6,21.8,1.6,-32.2,5.73,2.42,-30.2,26.8
2012-11-23 01:53:00,0.0,1.9174,0.0010,407.22,0.20,0.0,5.6,138.13,27.26,24.63,36.35,0.04,-272.74,-272.75,-39,556,-925,21.7,1.5,-32.6,21.8,1.6,-32.2,5.73,2.42,-30.2,26.8
2012-11-23 01:54:00,0.0,1.9179,0.0012,407.43,0.23,-0.8,1.0,138.14,27.26,24.63,36.35,0.04,-272.75,-272.75,-39,556,-924,21.7,1.5,-32.4,21.8,1.6,-32.2,5.73,2.40,-30.2,26.8
2012-11-23 01:55:00,0.0,1.9169,0.0011,407.20,0.19,-0.7,2.0,138.13,27.27,24.64,36.36,0.04,-272.75,-272.75,-39,556,-925,21.7,1.5,-32.6,21.8,1.6,-32.2,5.73,2.38,-30.2,26.8
2012-11-23 01:56:00,0.0,1.9168,0.0008,407.38,0.19,-0.2,3.8,138.13,27.27,24.63,36.35,0.04,-272.75,-272.74,-39,556,-925,21.7,1.5,-32.6,21.8,1.6,-32.2,5.73,2.37,-30.2,26.8
2012-11-23 01:57:00,0.0,1.9169,0.0009,407.33,0.21,-0.7,1.4,138.13,27.27,24.63,36.35,0.04,-272.75,-272.75,-39,556,-925,21.7,1.5,-32.6,21.8,1.6,-32.2,5.73,2.37,-30.2,26.8
2012-11-23 01:58:00,0.0,1.9171,0.0009,407.27,0.23,-0.7,2.1,138.13,27.27,24.63,36.35,0.04,-272.75,-272.75,-39,556,-924,21.7,1.5,-32.6,21.8,1.6,-32.2,5.73,2.38,-30.2,26.8
2012-11-23 01:59:00,0.0,1.9170,0.0011,407.28,0.23,-0.2,3.2,138.14,27.27,24.63,36.35,0.04,-272.75,-272.75,-39,556,-924,21.7,1.5,-32.6,21.8,1.6,-32.2,5.73,2.41,-30.2,26.8
2012-11-23 02:00:00,0.0,1.9167,0.0011,407.11,0.23,-1.0,0.0,138.13,27.27,24.63,36.36,0.04,-272.75,-272.75,-39,556,-925,21.7,1.5,-32.5,21.8,1.6,-32.1,5.73,2.42,-30.2,26.8
2012-11-23 02:01:00,0.0,1.9165,0.0010,407.15,0.25,-0.6,1.8,138.13,27.27,24.63,36.34,0.04,-272.76,-272.76,-39,556,-925,21.7,1.6,-32.4,21.8,1.6,-32.0,5.73,2.43,-30.2,26.8
2012-11-23 02:02:00,0.0,1.9165,0.0011,407.02,0.22,-0.6,2.3,138.13,27.27,24.64,36.36,0.04,-272.75,-272.75,-39,556,-924,21.7,1.6,-32.1,21.8,1.6,-31.8,5.73,2.42,-30.2,26.8
2012-11-23 02:03:00,0.0,1.9167,0.0011,407.03,0.24,-0.3,5.8,138.13,27.27,24.63,36.35,0.04,-272.74,-272.75,-39,556,-924,21.7,1.6,-31.9,21.8,1.7,-31.5,5.73,2.41,-30.2,26.8
2012-11-23 02:04:00,0.0,1.9165,0.0008,406.94,0.21,-1.0,0.0,138.13,27.26,24.63,36.36,0.04,-272.75,-272.76,-39,556,-925,21.7,1.6,-31.8,21.8,1.7,-31.5,5.73,2.39,-30.2,26.8
2012-11-23 02:05:00,0.0,1.9170,0.0011,407.17,0.19,-1.0,0.0,138.13,27.26,24.63,36.34,0.04,-272.74,-272.75,-39,556,-924,21.7,1.6,-31.9,21.8,1.7,-31.5,5.73,2.37,-30.2,26.8
2012-11-23 02:06:00,0.0,1.9172,0.0011,407.07,0.24,-1.0,0.0,138.13,27.26,24.63,36.35,0.04,-272.75,-272.75,-39,555,-924,21.6,1.6,-31.9,21.8,1.7,-31.6,5.73,2.37,-30.2,26.8
2012-11-23 02:07:00,0.0,1.9172,0.0011,407.11,0.20,-1.0,0.3,138.13,27.26,24.63,36.35,0.04,-272.75,-272.75,-39,556,-924,21.7,1.6,-32.1,21.8,1.6,-31.7,5.73,2.38,-30.2,26.8
2012-11-23 02:08:00,0.0,1.9173,0.0010,407.05,0.21,-0.5,3.3,138.13,27.26,24.63,36.35,0.04,-272.75,-272.75,-39,556,-924,21.7,1.6,-32.2,21.8,1.6,-31.8,5.73,2.39,-30.2,26.8
2012-11-23 02:09:00,0.0,1.9169,0.0011,407.10,0.21,-0.8,1.7,138.13,27.26,24.63,36.35,0.04,-272.75,-272.74,-39,556,-925,21.7,1.6,-32.3,21.8,1.6,-31.8,5.73,2.41,-30.2,26.8
2012-11-23 02:10:00,0.0,1.9164,0.0009,407.12,0.21,-1.0,0.0,138.13,27.26,24.64,36.35,0.04,-272.75,-272.75,-39,555,-924,21.7,1.6,-32.2,21.8,1.6,-31.9,5.73,2.42,-30.2,26.8
2012-11-23 02:11:00,0.0,1.9168,0.0012,407.24,0.23,-0.9,1.1,138.13,27.26,24.63,36.35,0.04,-272.75,-272.75,-39,556,-924,21.7,1.6,-32.1,21.8,1.6,-31.7,5.73,2.43,-30.3,26.8
2012-11-23 02:12:00,0.0,1.9166,0.0009,407.08,0.19,-1.0,0.0,138.13,27.26,24.63,36.36,0.04,-272.75,-272.75,-39,556,-924,21.7,1.6,-32.0,21.8,1.6,-31.7,5.73,2.41,-30.3,26.8
2012-11-23 02:13:00,0.0,1.9168,0.0011,407.26,0.22,-0.3,4.6,138.13,27.27,24.63,36.35,0.04,-272.76,-272.75,-39,556,-925,21.7,1.6,-31.9,21.8,1.7,-31.6,5.73,2.39,-30.3,26.8
2012-11-23 02:14:00,0.0,1.9165,0.0010,407.23,0.21,0.7,7.2,138.13,27.26,24.64,36.35,0.04,-272.75,-272.75,-39,556,-925,21.7,1.6,-31.9,21.8,1.7,-31.4,5.73,2.39,-30.3,26.8
2012-11-23 02:15:00,0.0,1.9170,0.0012,407.18,0.22,-0.4,3.1,138.13,27.26,24.64,36.36,0.04,-272.75,-272.75,-39,556,-924,21.7,1.6,-31.8,21.8,1.7,-31.5,5.73,2.37,-30.3,26.8
2012-11-23 02:16:00,0.0,1.9172,0.0011,407.19,0.19,-0.9,0.6,138.13,27.26,24.63,36.36,0.04,-272.76,-272.75,-39,556,-924,21.7,1.7,-31.7,21.8,1.7,-31.3,5.73,2.37,-30.3,26.8
2012-11-23 02:17:00,0.0,1.9173,0.0011,407.13,0.22,-1.0,0.0,138.13,27.26,24.63,36.36,0.04,-272.75,-272.75,-39,556,-925,21.7,1.7,-31.6,21.8,1.7,-31.3,5.73,2.39,-30.3,26.8
2012-11-23 02:18:00,0.0,1.9174,0.0010,407.21,0.27,-1.0,0.0,138.13,27.26,24.63,36.35,0.04,-272.76,-272.75,-39,556,-925,21.7,1.7,-31.7,21.8,1.7,-31.3,5.73,2.40,-30.3,26.7